BAW794 EGLL-LJLJ

Flight info

Callsign BAW794
Flight time 1h 49m
Altitude 33000
Route MAXIT Y803 MID UL612 BOGNA UL612 VEULE DCT TEPRI DCT POGZI DCT GELTA DCT LUVAL DCT BEGAR DCT TRA DCT GAMSA DCT GEDSO DCT LUMUS LUMUS4L
Aircraft A320/M-SDE3FGHIRWY/LB1

Departure

Time 2026-05-04 17:45
Airport London Heathrow Airport (EGLL)

Arrival

Time 2026-05-04 19:34
Airport Ljubljana Jože Pučnik Airport (LJLJ)
Time Latitude Longitude Altitude Speed Heading
2026-05-04 17:16 51.46901 -0.45935 77 ft 0 kts 56°
2026-05-04 17:33 51.46898 -0.45941 87 ft 3 kts 56°
2026-05-04 17:33 51.46884 -0.45977 89 ft 4 kts 66°
2026-05-04 17:34 51.46887 -0.46053 87 ft 0 kts 145°
2026-05-04 17:36 51.46887 -0.46054 87 ft 0 kts 145°
2026-05-04 17:38 51.46881 -0.46047 87 ft 2 kts 146°
2026-05-04 17:39 51.46808 -0.45987 88 ft 10 kts 175°
2026-05-04 17:39 51.46728 -0.45984 88 ft 13 kts 179°
2026-05-04 17:39 51.46660 -0.46061 87 ft 15 kts 262°
2026-05-04 17:40 51.46659 -0.46233 89 ft 16 kts 270°
2026-05-04 17:40 51.46658 -0.46420 89 ft 17 kts 270°
2026-05-04 17:40 51.46657 -0.46613 88 ft 18 kts 270°
2026-05-04 17:40 51.46657 -0.46819 89 ft 19 kts 270°
2026-05-04 17:41 51.46656 -0.47038 87 ft 21 kts 270°
2026-05-04 17:41 51.46655 -0.47268 87 ft 19 kts 270°
2026-05-04 17:41 51.46655 -0.47492 87 ft 19 kts 269°
2026-05-04 17:41 51.46651 -0.47710 87 ft 20 kts 270°
2026-05-04 17:42 51.46655 -0.47949 87 ft 22 kts 269°
2026-05-04 17:42 51.46652 -0.48158 87 ft 16 kts 269°
2026-05-04 17:42 51.46652 -0.48347 87 ft 18 kts 270°
2026-05-04 17:42 51.46651 -0.48539 87 ft 14 kts 269°
2026-05-04 17:43 51.46649 -0.48707 87 ft 15 kts 262°
2026-05-04 17:43 51.46566 -0.48786 89 ft 11 kts 191°
2026-05-04 17:43 51.46493 -0.48750 88 ft 12 kts 131°
2026-05-04 17:43 51.46478 -0.48644 88 ft 0 kts 90°
2026-05-04 17:44 51.46478 -0.48622 88 ft 6 kts 90°
2026-05-04 17:44 51.46480 -0.48218 88 ft 72 kts 89°
2026-05-04 17:44 51.46484 -0.47077 90 ft 128 kts 89°
2026-05-04 17:44 51.46479 -0.45460 315 ft 150 kts 88°
2026-05-04 17:45 51.46478 -0.43800 1044 ft 149 kts 87°
2026-05-04 17:45 51.46481 -0.42123 1517 ft 163 kts 94°
2026-05-04 17:45 51.45966 -0.40336 1853 ft 190 kts 123°
2026-05-04 17:45 51.45194 -0.38449 2138 ft 214 kts 121°
2026-05-04 17:46 51.44131 -0.36574 2524 ft 243 kts 139°
2026-05-04 17:46 51.42565 -0.35269 3152 ft 263 kts 164°
2026-05-04 17:46 51.40722 -0.35155 4094 ft 269 kts 192°
2026-05-04 17:46 51.38978 -0.36255 5111 ft 271 kts 206°
2026-05-04 17:47 51.37288 -0.37591 6124 ft 272 kts 207°
2026-05-04 17:47 51.35585 -0.38938 7076 ft 274 kts 206°
2026-05-04 17:47 51.33871 -0.40289 8020 ft 275 kts 206°
2026-05-04 17:47 51.32149 -0.41646 8961 ft 277 kts 206°
2026-05-04 17:48 51.30412 -0.43014 9877 ft 280 kts 206°
2026-05-04 17:48 51.28632 -0.44411 10441 ft 295 kts 206°
2026-05-04 17:48 51.26718 -0.45915 10708 ft 318 kts 206°
2026-05-04 17:48 51.24665 -0.47542 10958 ft 339 kts 206°
2026-05-04 17:49 51.22529 -0.49242 11518 ft 347 kts 206°
2026-05-04 17:49 51.20349 -0.50954 12187 ft 352 kts 206°
2026-05-04 17:49 51.18128 -0.52682 12848 ft 357 kts 206°
2026-05-04 17:49 51.15881 -0.54415 13523 ft 362 kts 206°
2026-05-04 17:50 51.13589 -0.56178 14172 ft 367 kts 206°
2026-05-04 17:50 51.11248 -0.57981 14818 ft 370 kts 205°
2026-05-04 17:50 51.08884 -0.59471 15414 ft 373 kts 194°
2026-05-04 17:50 51.06309 -0.60039 16009 ft 375 kts 180°
2026-05-04 17:51 51.03715 -0.59549 16625 ft 378 kts 165°
2026-05-04 17:51 51.01267 -0.58026 17227 ft 381 kts 150°
2026-05-04 17:51 50.99037 -0.55721 17848 ft 384 kts 146°
2026-05-04 17:51 50.96821 -0.53339 18453 ft 387 kts 146°
2026-05-04 17:52 50.94585 -0.50944 19017 ft 389 kts 146°
2026-05-04 17:52 50.92330 -0.48539 19595 ft 392 kts 146°
2026-05-04 17:52 50.90059 -0.46128 20191 ft 394 kts 146°
2026-05-04 17:52 50.87770 -0.43707 20767 ft 396 kts 147°
2026-05-04 17:53 50.85475 -0.41281 21311 ft 398 kts 147°
2026-05-04 17:53 50.83162 -0.38837 21855 ft 400 kts 147°
2026-05-04 17:53 50.80886 -0.36300 22376 ft 403 kts 140°
2026-05-04 17:53 50.79025 -0.32974 22870 ft 407 kts 125°
2026-05-04 17:54 50.77459 -0.29235 23388 ft 409 kts 124°
2026-05-04 17:54 50.75903 -0.25457 23834 ft 411 kts 124°
2026-05-04 17:54 50.74349 -0.21652 24242 ft 414 kts 124°
2026-05-04 17:54 50.72788 -0.17820 24643 ft 416 kts 125°
2026-05-04 17:55 50.71216 -0.13977 25047 ft 418 kts 125°
2026-05-04 17:55 50.69633 -0.10126 25439 ft 420 kts 125°
2026-05-04 17:55 50.68032 -0.06250 25837 ft 422 kts 126°
2026-05-04 17:55 50.66419 -0.02363 26231 ft 424 kts 126°
2026-05-04 17:56 50.64796 0.01539 26638 ft 426 kts 126°
2026-05-04 17:56 50.63168 0.05451 27031 ft 429 kts 126°
2026-05-04 17:56 50.61529 0.09394 27431 ft 431 kts 126°
2026-05-04 17:56 50.59882 0.13354 27808 ft 433 kts 126°
2026-05-04 17:57 50.58226 0.17328 28182 ft 436 kts 126°
2026-05-04 17:57 50.57119 0.19978 28428 ft 437 kts 126°
2026-05-04 17:57 50.55446 0.23979 28803 ft 440 kts 126°
2026-05-04 17:57 50.53760 0.28005 29188 ft 441 kts 126°
2026-05-04 17:58 50.52071 0.32031 29722 ft 440 kts 126°
2026-05-04 17:58 50.50388 0.36030 30255 ft 438 kts 126°
2026-05-04 17:58 50.48704 0.40023 30687 ft 438 kts 126°
2026-05-04 17:58 50.47024 0.44005 31165 ft 437 kts 126°
2026-05-04 17:59 50.45346 0.47979 31602 ft 437 kts 126°
2026-05-04 17:59 50.43667 0.51953 32031 ft 437 kts 126°
2026-05-04 17:59 50.40298 0.59892 32868 ft 438 kts 126°
2026-05-04 18:00 50.38609 0.63862 32987 ft 436 kts 126°
2026-05-04 18:00 50.35267 0.71725 32995 ft 432 kts 126°
2026-05-04 18:01 50.31932 0.79551 33000 ft 432 kts 126°
2026-05-04 18:01 50.28590 0.87361 32993 ft 432 kts 126°
2026-05-04 18:02 50.23564 0.99055 32987 ft 432 kts 127°
2026-05-04 18:02 50.20206 1.06838 32986 ft 432 kts 127°
2026-05-04 18:03 50.16841 1.14608 32994 ft 432 kts 127°
2026-05-04 18:03 50.13471 1.22368 32986 ft 432 kts 127°
2026-05-04 18:04 50.10097 1.30112 32987 ft 432 kts 127°
2026-05-04 18:05 50.05026 1.41714 32988 ft 432 kts 127°
2026-05-04 18:05 50.01640 1.49428 32982 ft 432 kts 127°
2026-05-04 18:06 49.96549 1.60995 32981 ft 432 kts 127°
2026-05-04 18:06 49.93158 1.68689 32978 ft 432 kts 127°
2026-05-04 18:07 49.89757 1.76372 32974 ft 432 kts 127°
2026-05-04 18:07 49.86347 1.84038 32969 ft 432 kts 127°
2026-05-04 18:08 49.82935 1.91705 32968 ft 432 kts 127°
2026-05-04 18:08 49.79517 1.99362 32957 ft 433 kts 127°
2026-05-04 18:09 49.72645 2.14648 32957 ft 433 kts 127°
2026-05-04 18:10 49.69205 2.22280 32958 ft 433 kts 127°
2026-05-04 18:10 49.65762 2.29907 32955 ft 433 kts 128°
2026-05-04 18:11 49.62332 2.37493 32948 ft 434 kts 128°
2026-05-04 18:11 49.58868 2.45113 32952 ft 434 kts 128°
2026-05-04 18:12 49.55916 2.53340 32950 ft 439 kts 118°
2026-05-04 18:12 49.53370 2.61927 33108 ft 446 kts 117°
2026-05-04 18:13 49.52085 2.66281 33480 ft 447 kts 118°
2026-05-04 18:13 49.50799 2.70642 33931 ft 447 kts 118°
2026-05-04 18:13 49.48239 2.79279 34679 ft 447 kts 118°
2026-05-04 18:14 49.46921 2.83685 35046 ft 447 kts 118°
2026-05-04 18:14 49.45637 2.87965 35371 ft 448 kts 118°
2026-05-04 18:14 49.44316 2.92364 35694 ft 448 kts 118°
2026-05-04 18:15 49.41698 3.01079 36346 ft 449 kts 118°
2026-05-04 18:15 49.39088 3.09737 36908 ft 451 kts 118°
2026-05-04 18:16 49.36431 3.18529 36947 ft 451 kts 118°
2026-05-04 18:16 49.33808 3.27185 36942 ft 451 kts 118°
2026-05-04 18:17 49.29828 3.40250 36964 ft 451 kts 118°
2026-05-04 18:18 49.25831 3.53282 36944 ft 451 kts 118°
2026-05-04 18:18 49.23163 3.61944 36956 ft 451 kts 119°
2026-05-04 18:19 49.19131 3.74971 36950 ft 451 kts 119°
2026-05-04 18:19 49.16440 3.83632 36947 ft 451 kts 119°
2026-05-04 18:20 49.13745 3.92304 36946 ft 452 kts 119°
2026-05-04 18:20 49.11044 4.00959 36953 ft 452 kts 119°
2026-05-04 18:21 49.08326 4.09603 36952 ft 452 kts 119°
2026-05-04 18:21 49.05608 4.18235 36950 ft 452 kts 120°
2026-05-04 18:22 49.02885 4.26868 36957 ft 452 kts 120°
2026-05-04 18:22 49.00150 4.35490 36955 ft 452 kts 120°
2026-05-04 18:23 48.97411 4.44092 36958 ft 452 kts 120°
2026-05-04 18:23 48.94667 4.52688 36964 ft 452 kts 120°
2026-05-04 18:24 48.91921 4.61281 36966 ft 452 kts 120°
2026-05-04 18:24 48.89164 4.69851 36973 ft 452 kts 120°
2026-05-04 18:25 48.86396 4.78420 36966 ft 452 kts 120°
2026-05-04 18:25 48.83619 4.86993 36973 ft 452 kts 120°
2026-05-04 18:26 48.80843 4.95553 36970 ft 452 kts 120°
2026-05-04 18:26 48.78059 5.04105 36967 ft 452 kts 120°
2026-05-04 18:27 48.75267 5.12643 36965 ft 452 kts 120°
2026-05-04 18:27 48.72473 5.21173 36970 ft 452 kts 120°
2026-05-04 18:28 48.69673 5.29694 36983 ft 452 kts 120°
2026-05-04 18:28 48.66865 5.38206 36986 ft 452 kts 121°
2026-05-04 18:29 48.64044 5.46708 36999 ft 452 kts 121°
2026-05-04 18:29 48.61219 5.55198 37002 ft 452 kts 121°
2026-05-04 18:30 48.56965 5.67909 36999 ft 453 kts 121°
2026-05-04 18:31 48.54112 5.76411 36988 ft 454 kts 121°
2026-05-04 18:31 48.51253 5.84923 36979 ft 455 kts 121°
2026-05-04 18:31 48.49823 5.89169 37108 ft 455 kts 121°
2026-05-04 18:32 48.48389 5.93422 37514 ft 454 kts 121°
2026-05-04 18:32 48.46961 5.97654 37858 ft 454 kts 120°
2026-05-04 18:32 48.45528 6.01896 38166 ft 454 kts 120°
2026-05-04 18:32 48.44087 6.06142 38450 ft 455 kts 120°
2026-05-04 18:33 48.42644 6.10382 38706 ft 456 kts 120°
2026-05-04 18:33 48.41198 6.14625 38904 ft 456 kts 120°
2026-05-04 18:33 48.39745 6.18877 38991 ft 456 kts 120°
2026-05-04 18:34 48.36839 6.27358 39004 ft 456 kts 120°
2026-05-04 18:34 48.33931 6.35816 39007 ft 456 kts 120°
2026-05-04 18:35 48.31029 6.44277 39011 ft 456 kts 120°
2026-05-04 18:35 48.28115 6.52734 39012 ft 456 kts 121°
2026-05-04 18:36 48.25188 6.61173 39016 ft 456 kts 121°
2026-05-04 18:36 48.22251 6.69610 39018 ft 456 kts 121°
2026-05-04 18:37 48.19316 6.78051 39020 ft 457 kts 121°
2026-05-04 18:37 48.16368 6.86479 39023 ft 457 kts 121°
2026-05-04 18:38 48.13407 6.94901 39016 ft 457 kts 121°
2026-05-04 18:38 48.10446 7.03302 39013 ft 457 kts 121°
2026-05-04 18:39 48.07478 7.11697 39013 ft 457 kts 121°
2026-05-04 18:39 48.05011 7.18665 39011 ft 456 kts 121°
2026-05-04 18:40 48.02032 7.27053 39008 ft 457 kts 121°
2026-05-04 18:40 47.99048 7.35423 39011 ft 457 kts 121°
2026-05-04 18:41 47.96048 7.43800 39014 ft 457 kts 121°
2026-05-04 18:41 47.93043 7.52163 39015 ft 457 kts 121°
2026-05-04 18:42 47.90229 7.60673 39021 ft 460 kts 113°
2026-05-04 18:42 47.87987 7.69617 39023 ft 461 kts 113°
2026-05-04 18:43 47.85737 7.78551 39015 ft 461 kts 113°
2026-05-04 18:43 47.83469 7.87459 39007 ft 461 kts 114°
2026-05-04 18:44 47.81185 7.96385 39014 ft 461 kts 114°
2026-05-04 18:44 47.78899 8.05288 39023 ft 461 kts 114°
2026-05-04 18:45 47.76650 8.14043 39009 ft 461 kts 114°
2026-05-04 18:45 47.74350 8.22931 39018 ft 461 kts 114°
2026-05-04 18:46 47.72044 8.31791 39014 ft 460 kts 114°
2026-05-04 18:46 47.69749 8.40602 39014 ft 460 kts 114°
2026-05-04 18:47 47.67524 8.49477 39011 ft 460 kts 111°
2026-05-04 18:47 47.65518 8.58514 39008 ft 460 kts 110°
2026-05-04 18:48 47.63560 8.67541 39009 ft 460 kts 110°
2026-05-04 18:48 47.61533 8.76537 39004 ft 459 kts 111°
2026-05-04 18:49 47.59467 8.85499 39002 ft 459 kts 111°
2026-05-04 18:49 47.57405 8.94439 38996 ft 459 kts 111°
2026-05-04 18:50 47.55344 9.03376 38993 ft 459 kts 111°
2026-05-04 18:50 47.53274 9.12308 38987 ft 459 kts 111°
2026-05-04 18:51 47.51191 9.21246 38987 ft 459 kts 111°
2026-05-04 18:51 47.49112 9.30149 38979 ft 459 kts 111°
2026-05-04 18:52 47.47020 9.39062 38985 ft 458 kts 111°
2026-05-04 18:52 47.44925 9.47959 38982 ft 458 kts 111°
2026-05-04 18:53 47.42829 9.56848 38990 ft 458 kts 111°
2026-05-04 18:53 47.40795 9.65760 38991 ft 459 kts 106°
2026-05-04 18:54 47.39498 9.75001 38993 ft 460 kts 103°
2026-05-04 18:54 47.38220 9.84243 38995 ft 460 kts 103°
2026-05-04 18:55 47.36931 9.93483 39002 ft 460 kts 104°
2026-05-04 18:55 47.34975 10.07348 39009 ft 460 kts 104°
2026-05-04 18:56 47.33668 10.16587 39010 ft 461 kts 104°
2026-05-04 18:56 47.32351 10.25833 39007 ft 461 kts 103°
2026-05-04 18:57 47.31026 10.35075 38998 ft 461 kts 104°
2026-05-04 18:57 47.29691 10.44320 38982 ft 461 kts 104°
2026-05-04 18:58 47.28343 10.53545 38988 ft 462 kts 104°
2026-05-04 18:58 47.26994 10.62798 38987 ft 463 kts 104°
2026-05-04 18:59 47.25643 10.72038 38993 ft 462 kts 104°
2026-05-04 18:59 47.24271 10.81285 38992 ft 462 kts 104°
2026-05-04 19:00 47.22892 10.90520 38992 ft 463 kts 104°
2026-05-04 19:00 47.21512 10.99768 38991 ft 463 kts 104°
2026-05-04 19:01 47.20126 11.09023 38990 ft 463 kts 104°
2026-05-04 19:01 47.18728 11.18257 38978 ft 463 kts 104°
2026-05-04 19:02 47.17318 11.27477 38971 ft 463 kts 104°
2026-05-04 19:02 47.15904 11.36719 38973 ft 463 kts 104°
2026-05-04 19:03 47.14485 11.45940 38985 ft 463 kts 104°
2026-05-04 19:03 47.13772 11.50567 38675 ft 465 kts 104°
2026-05-04 19:03 47.13060 11.55181 38263 ft 464 kts 104°
2026-05-04 19:04 47.12340 11.59803 37620 ft 465 kts 105°
2026-05-04 19:04 47.11618 11.64431 37027 ft 465 kts 104°
2026-05-04 19:04 47.10894 11.69057 36305 ft 467 kts 105°
2026-05-04 19:04 47.10166 11.73700 35791 ft 464 kts 105°
2026-05-04 19:05 47.09442 11.78301 35316 ft 461 kts 105°
2026-05-04 19:05 47.08721 11.82866 34738 ft 460 kts 105°
2026-05-04 19:05 47.07990 11.87433 34148 ft 459 kts 106°
2026-05-04 19:05 47.07183 11.91956 33438 ft 458 kts 108°
2026-05-04 19:06 47.06289 11.96448 32647 ft 460 kts 109°
2026-05-04 19:06 47.05343 12.00927 31950 ft 459 kts 110°
2026-05-04 19:06 47.04382 12.05371 31377 ft 457 kts 110°
2026-05-04 19:06 47.03419 12.09833 31015 ft 466 kts 110°
2026-05-04 19:07 47.02442 12.14424 30610 ft 475 kts 110°
2026-05-04 19:07 47.01474 12.19061 30205 ft 476 kts 109°
2026-05-04 19:07 47.00522 12.23696 29744 ft 474 kts 109°
2026-05-04 19:07 46.99585 12.28308 29364 ft 472 kts 109°
2026-05-04 19:08 46.98650 12.32909 28949 ft 469 kts 109°
2026-05-04 19:08 46.97713 12.37469 28544 ft 466 kts 109°
2026-05-04 19:08 46.96775 12.41989 28151 ft 463 kts 109°
2026-05-04 19:08 46.95837 12.46488 27744 ft 461 kts 109°
2026-05-04 19:09 46.94903 12.50954 27346 ft 458 kts 109°
2026-05-04 19:09 46.93971 12.55397 26960 ft 456 kts 109°
2026-05-04 19:09 46.93042 12.59817 26553 ft 453 kts 109°
2026-05-04 19:09 46.92117 12.64208 26170 ft 450 kts 109°
2026-05-04 19:10 46.91197 12.68559 25772 ft 447 kts 109°
2026-05-04 19:10 46.90279 12.72891 25383 ft 445 kts 109°
2026-05-04 19:10 46.89365 12.77206 24995 ft 443 kts 109°
2026-05-04 19:10 46.88456 12.81491 24622 ft 441 kts 109°
2026-05-04 19:11 46.87547 12.85757 24242 ft 438 kts 109°
2026-05-04 19:11 46.86647 12.89992 23866 ft 436 kts 109°
2026-05-04 19:11 46.85746 12.94216 23463 ft 434 kts 109°
2026-05-04 19:11 46.84848 12.98407 23076 ft 431 kts 109°
2026-05-04 19:12 46.83953 13.02571 22717 ft 429 kts 109°
2026-05-04 19:12 46.82175 13.10817 21981 ft 423 kts 109°
2026-05-04 19:12 46.81289 13.14901 21615 ft 421 kts 109°
2026-05-04 19:13 46.80411 13.18967 21242 ft 418 kts 109°
2026-05-04 19:13 46.79541 13.23001 20887 ft 416 kts 109°
2026-05-04 19:13 46.78675 13.27016 20529 ft 413 kts 109°
2026-05-04 19:13 46.77811 13.31004 20171 ft 411 kts 109°
2026-05-04 19:14 46.76960 13.34918 19820 ft 409 kts 109°
2026-05-04 19:14 46.76089 13.38896 19519 ft 402 kts 109°
2026-05-04 19:14 46.75267 13.42646 19382 ft 386 kts 109°
2026-05-04 19:14 46.74459 13.46329 19104 ft 377 kts 109°
2026-05-04 19:15 46.73667 13.49943 18679 ft 373 kts 109°
2026-05-04 19:15 46.72885 13.53524 18221 ft 369 kts 109°
2026-05-04 19:15 46.72107 13.57073 17766 ft 365 kts 109°
2026-05-04 19:15 46.71320 13.60628 17481 ft 365 kts 109°
2026-05-04 19:16 46.70547 13.64106 17171 ft 364 kts 109°
2026-05-04 19:16 46.69773 13.67604 16853 ft 362 kts 109°
2026-05-04 19:16 46.68991 13.71127 16535 ft 360 kts 109°
2026-05-04 19:16 46.68220 13.74589 16225 ft 358 kts 110°
2026-05-04 19:17 46.67463 13.77982 15916 ft 356 kts 110°
2026-05-04 19:17 46.66693 13.81444 15607 ft 354 kts 110°
2026-05-04 19:17 46.65946 13.84801 15302 ft 353 kts 110°
2026-05-04 19:17 46.65179 13.88226 14989 ft 351 kts 110°
2026-05-04 19:18 46.64423 13.91593 14686 ft 349 kts 110°
2026-05-04 19:18 46.63681 13.94895 14382 ft 347 kts 110°
2026-05-04 19:18 46.62925 13.98267 14078 ft 345 kts 110°
2026-05-04 19:18 46.62181 14.01572 13774 ft 343 kts 110°
2026-05-04 19:19 46.61436 14.04870 13452 ft 342 kts 110°
2026-05-04 19:19 46.60705 14.08105 13162 ft 342 kts 110°
2026-05-04 19:19 46.59909 14.11355 12868 ft 339 kts 117°
2026-05-04 19:19 46.58723 14.14283 12575 ft 335 kts 129°
2026-05-04 19:20 46.57132 14.16733 12281 ft 332 kts 143°
2026-05-04 19:20 46.55234 14.18594 11982 ft 328 kts 154°
2026-05-04 19:20 46.53224 14.20147 11632 ft 327 kts 154°
2026-05-04 19:20 46.51868 14.21197 11440 ft 326 kts 154°
2026-05-04 19:21 46.49221 14.23248 11073 ft 325 kts 154°
2026-05-04 19:21 46.48070 14.24140 10888 ft 324 kts 154°
2026-05-04 19:21 46.46086 14.25678 10612 ft 323 kts 154°
2026-05-04 19:21 46.44108 14.27215 10291 ft 319 kts 154°
2026-05-04 19:22 46.42187 14.28708 10179 ft 308 kts 154°
2026-05-04 19:22 46.40334 14.30149 10100 ft 297 kts 154°
2026-05-04 19:22 46.38532 14.31547 9918 ft 290 kts 155°
2026-05-04 19:22 46.36761 14.32916 9625 ft 288 kts 155°
2026-05-04 19:23 46.35000 14.34275 9374 ft 286 kts 155°
2026-05-04 19:23 46.33269 14.35610 9112 ft 285 kts 155°
2026-05-04 19:23 46.31501 14.36972 8855 ft 284 kts 155°
2026-05-04 19:23 46.29783 14.38293 8553 ft 283 kts 155°
2026-05-04 19:24 46.28048 14.39626 8227 ft 282 kts 155°
2026-05-04 19:24 46.26315 14.40958 7885 ft 281 kts 155°
2026-05-04 19:24 46.24593 14.42301 7546 ft 281 kts 152°
2026-05-04 19:24 46.23048 14.44050 7215 ft 285 kts 138°
2026-05-04 19:25 46.21675 14.46112 6866 ft 285 kts 137°
2026-05-04 19:25 46.20304 14.48169 6508 ft 285 kts 137°
2026-05-04 19:25 46.18932 14.50227 6168 ft 284 kts 137°
2026-05-04 19:25 46.17570 14.52267 5846 ft 282 kts 137°
2026-05-04 19:26 46.16210 14.54289 5576 ft 279 kts 137°
2026-05-04 19:26 46.14878 14.56251 5433 ft 269 kts 137°
2026-05-04 19:26 46.13587 14.58155 5318 ft 261 kts 138°
2026-05-04 19:26 46.12340 14.59997 5191 ft 253 kts 138°
2026-05-04 19:27 46.11132 14.61781 5070 ft 244 kts 138°
2026-05-04 19:27 46.09965 14.63505 4950 ft 237 kts 138°
2026-05-04 19:27 46.08830 14.65183 4816 ft 229 kts 139°
2026-05-04 19:27 46.07738 14.66807 4648 ft 223 kts 137°
2026-05-04 19:28 46.07040 14.68781 4396 ft 228 kts 97°
2026-05-04 19:28 46.07388 14.70956 4079 ft 225 kts 51°
2026-05-04 19:28 46.08619 14.72134 4047 ft 215 kts
2026-05-04 19:28 46.09998 14.71747 4228 ft 198 kts 319°
2026-05-04 19:29 46.10712 14.70212 4159 ft 182 kts 276°
2026-05-04 19:29 46.10797 14.68400 4082 ft 182 kts 280°
2026-05-04 19:29 46.11465 14.66865 4042 ft 188 kts 310°
2026-05-04 19:29 46.12299 14.65425 4024 ft 187 kts 302°
2026-05-04 19:30 46.13059 14.63911 3929 ft 186 kts 302°
2026-05-04 19:30 46.13819 14.62419 3725 ft 185 kts 302°
2026-05-04 19:30 46.14586 14.60923 3496 ft 186 kts 302°
2026-05-04 19:30 46.15357 14.59425 3280 ft 184 kts 302°
2026-05-04 19:31 46.16112 14.57957 3021 ft 180 kts 304°
2026-05-04 19:31 46.16833 14.56555 2773 ft 168 kts 304°
2026-05-04 19:31 46.17495 14.55269 2540 ft 153 kts 304°
2026-05-04 19:31 46.18099 14.54093 2352 ft 142 kts 305°
2026-05-04 19:32 46.18675 14.52969 2160 ft 137 kts 305°
2026-05-04 19:32 46.19236 14.51876 1983 ft 136 kts 305°
2026-05-04 19:32 46.19800 14.50775 1798 ft 137 kts 304°
2026-05-04 19:32 46.20367 14.49670 1623 ft 137 kts 304°
2026-05-04 19:33 46.20934 14.48565 1431 ft 138 kts 304°
2026-05-04 19:33 46.21503 14.47453 1258 ft 138 kts 303°
2026-05-04 19:33 46.22000 14.46473 1229 ft 85 kts 307°
2026-05-04 19:33 46.22250 14.45993 1242 ft 52 kts 307°
2026-05-04 19:34 46.22410 14.45680 1256 ft 31 kts 307°
2026-05-04 19:34 46.22535 14.45482 1253 ft 23 kts 320°
2026-05-04 19:34 46.22629 14.45392 1254 ft 12 kts 332°
2026-05-04 19:34 46.22703 14.45349 1261 ft 11 kts 343°
2026-05-04 19:35 46.22783 14.45323 1262 ft 12 kts 350°
2026-05-04 19:35 46.22859 14.45332 1262 ft 10 kts 27°
2026-05-04 19:35 46.22915 14.45390 1258 ft 8 kts 36°
2026-05-04 19:35 46.22927 14.45439 1262 ft 4 kts 100°
2026-05-04 19:36 46.22945 14.45476 1264 ft 6 kts 41°
2026-05-04 19:36 46.22970 14.45503 1263 ft 3 kts 36°
2026-05-04 19:36 46.22979 14.45513 1263 ft 1 kts 36°